{"data":{"norad_id":59356,"intl_designator":"2024-060J","name":"STARLINK-31552","alt_names":[],"object_type":"PAYLOAD","status":"ACTIVE","operator":null,"country":"US","launch_date":"2024-03-31","launch_site_code":"AFETR","launch_vehicle":null,"mission":null,"orbit_class":"UNKNOWN","rcs_meters":null,"size_class":null,"mass_kg":null,"dimensions":null,"purposes":["comms"],"wikipedia_slug":null,"has_3d_model":false,"image_url":null,"decayed_at":null,"tle_current":{"epoch":"2026-05-25T03:46:58.276416Z","epoch_age_seconds":64616,"freshness":"FRESH","line1":"1 59356U 24060J   26145.15761894 -.00000474  00000+0 -77220-5 0  9998","line2":"2 59356  43.0012 188.3630 0001130 271.5851  88.4872 15.27575348121753","mean_motion":15.27575348,"eccentricity":0.000113,"inclination_deg":43.0012,"raan_deg":188.363,"arg_perigee_deg":271.5851,"mean_anomaly_deg":88.4872,"bstar":-7.722e-6,"rev_number":12175,"period_min":94.267035788797,"perigee_km":482.28771023363,"apogee_km":483.83834143947,"semimajor_km":6861.2000258366,"source":"CELESTRAK","updated_at":"2026-05-25T13:38:18.909849Z"}}}